Starlink 32527

operational
NORAD ID: 62319 Int'l Des: 2024-239 Owner: SPXS Country: US Constellation: starlink
LEOCIRCULAR

关于 Starlink 32527

正在加载描述...

实时位置

正在加载3D地球...

即将过境

高度历史

Altitude vs Time

uPlot chart will show altitude changes over time

两行轨道根数

1 62319U 24239U 26095.17460922 .00035844 00000-0 12168-2 0 9998
2 62319 53.1603 57.7742 0001333 99.8833 260.2319 15.30191422 73622
Epoch: Apr 5, 2026 • Age: 10 hours

当前状态

高度 475.9 km
速度 7.63 km/s
星下点 27.86°N, 165.38°E
发射日期 Dec 13, 2024
运行时间 1.3 years
类型 internet

技术详情

分类 Payload
质量 730.00 kg
干质量 700.00 kg
总质量 730.00 kg
长度 0.30 m
直径 4.10 m
跨度 29.00 m
形状 Box + pan
制造商 SPXS
平台类型 Starlink V2M
阶段状态 In Orbit
所有者/国家 SPXS/US

大型星座

Loading constellations...